GFSFLT2_850_spd_057.txt.gz
Wind_Speed
35 30 33 32 24 16 27 27 30 31 31 34 36 35 36 35 34 33 32 30 25 20 22 22 18 15 14 14 15 15 16 18
29 35 39 38 30 30 34 29 28 33 32 34 35 35 34 34 33 31 30 28 25 20 20 19 16 15 14 13 13 14 14 15
30 28 39 43 30 30 39 36 34 35 34 35 35 35 34 33 31 29 28 27 25 21 18 18 14 11 11 10 10 11 11 13
29 28 25 23 36 36 37 33 32 34 35 35 35 35 33 31 29 28 27 25 23 22 16 13 11 9 8 7 7 9 10 12
26 22 22 23 34 44 45 42 37 33 35 36 36 36 33 30 29 28 25 22 24 22 18 14 12 10 8 5 6 7 8 10
32 28 34 38 39 43 40 39 40 40 36 37 35 35 32 28 25 24 23 21 19 16 14 13 11 8 5 3 4 6 7 7
39 37 39 41 40 42 44 41 41 40 39 37 36 35 30 26 24 22 20 19 15 13 11 11 8 5 3 1 2 4 5 4
35 39 33 39 39 40 41 41 43 41 39 36 36 33 29 25 22 20 16 14 13 10 8 6 5 4 4 5 3 3 2 1
28 26 29 35 35 38 40 40 39 38 37 35 35 31 27 22 21 18 14 12 12 11 9 7 5 6 8 9 7 5 4 3
25 30 29 36 38 37 36 37 36 36 35 35 32 27 21 20 20 16 14 13 14 11 9 8 7 8 8 9 9 8 7 6
28 31 33 37 36 40 40 39 38 36 35 31 28 23 26 22 19 18 13 15 18 16 12 11 12 12 11 11 10 9 9 11
24 32 39 41 44 40 38 34 39 38 34 31 24 24 24 21 21 16 14 16 17 16 15 16 16 15 13 13 14 14 14 15
16 26 33 38 40 41 40 38 40 36 35 30 30 27 28 25 17 17 18 17 16 17 17 21 21 19 16 17 18 19 21 20
20 22 29 35 41 39 36 38 38 40 39 36 30 30 26 21 18 19 19 19 18 20 21 24 25 23 22 21 20 24 26 26
22 23 27 35 38 41 39 39 40 41 39 42 38 31 27 23 20 22 24 25 24 24 24 26 29 28 27 23 10 16 19 22
21 24 28 32 35 41 45 42 43 41 45 44 40 37 32 31 26 24 25 25 27 29 28 29 30 31 30 30 32 29 12 9
21 25 29 29 32 36 38 45 47 45 42 41 44 40 38 35 32 30 29 28 29 29 29 30 31 34 34 34 32 33 30 24
26 30 33 35 38 40 38 43 45 47 45 42 45 41 39 39 38 35 32 31 33 32 28 27 30 28 37 36 34 35 35 29
30 32 34 36 39 41 39 42 48 49 42 39 39 40 39 40 37 37 33 34 33 26 33 30 27 31 31 29 31 38 30 30
34 35 35 38 43 43 42 42 44 44 40 40 41 40 36 34 32 34 34 34 32 32 28 32 30 29 25 28 36 28 32 28

GFSFLT2_850_spd_060.txt.gz
Wind_Speed
33 28 28 32 35 37 40 35 29 29 28 36 36 36 36 34 33 30 27 26 26 26 25 23 21 19 19 19 18 17 17 18
29 33 36 36 37 40 41 37 33 31 33 38 37 36 33 32 33 30 26 25 26 25 23 19 18 17 16 16 17 17 18 18
26 33 37 38 36 32 36 38 35 32 36 38 38 35 33 34 33 30 26 24 25 24 22 20 18 16 14 14 15 16 18 17
26 35 35 41 32 22 35 42 45 36 36 38 38 36 33 33 32 29 25 22 23 22 16 14 13 13 12 12 12 15 16 15
21 22 35 28 20 39 44 44 39 39 42 40 38 37 35 33 32 30 25 22 21 21 16 12 11 10 10 9 10 13 13 13
16 27 18 21 37 44 42 43 38 36 36 39 39 38 35 33 31 29 27 23 20 18 17 15 13 11 8 6 7 9 10 11
30 29 25 31 45 47 45 43 43 41 35 37 38 36 35 33 31 28 26 24 19 17 14 13 10 8 7 5 4 6 6 7
30 29 26 39 46 44 46 44 44 41 38 35 37 35 33 32 28 24 24 23 19 13 11 11 8 7 5 4 3 3 3 3
18 28 31 38 41 41 45 45 43 40 40 37 36 34 32 31 28 23 22 19 15 14 12 9 6 6 5 5 4 4 3 1
26 33 34 39 37 40 40 39 38 40 39 37 35 34 31 27 25 20 19 17 13 11 9 8 6 4 4 4 5 6 6 5
28 28 24 33 34 31 35 37 35 37 36 35 38 36 29 25 21 19 18 15 12 12 9 7 6 6 5 6 8 9 9 9
29 24 28 31 28 34 33 33 34 36 38 41 39 33 25 23 21 18 16 16 15 11 11 11 9 9 9 11 12 14 14 14
19 25 30 31 33 38 36 37 37 36 38 38 34 28 29 24 22 20 16 16 11 9 13 14 13 14 15 16 18 19 20 20
15 22 30 38 37 36 38 34 36 36 35 34 32 27 21 23 21 18 19 18 16 17 15 16 16 19 21 21 21 22 25 24
18 19 27 39 39 42 39 36 38 41 34 36 38 33 26 23 23 23 20 17 16 17 18 18 19 20 25 23 10 15 17 18
21 22 27 34 43 42 44 41 41 43 43 38 35 33 27 28 28 20 19 19 19 21 22 23 23 24 27 30 31 32 19 12
22 24 25 32 39 40 47 46 41 36 41 40 40 42 35 30 28 27 25 23 22 23 23 26 27 29 30 32 33 33 35 35
22 26 30 32 35 37 43 49 46 43 43 41 45 40 45 38 37 34 33 32 29 28 30 30 32 29 28 28 30 29 34 36
21 25 31 34 36 38 40 45 46 45 47 48 47 44 47 48 42 40 40 37 33 33 34 34 30 32 30 31 24 30 34 37
25 26 28 33 35 37 38 40 41 45 47 50 50 50 47 46 46 42 39 37 38 37 35 35 34 31 35 33 30 28 27 33

GFSFLT2_850_spd_063.txt.gz
Wind_Speed
36 36 37 34 26 30 30 32 35 35 32 34 34 34 31 30 29 30 31 32 30 28 27 25 24 24 22 21 20 20 22 22
35 39 41 37 29 28 34 34 35 36 35 36 37 35 34 31 30 29 30 30 28 27 25 22 22 20 20 20 20 21 22 21
34 38 41 41 35 35 39 40 37 33 34 35 36 38 34 32 30 29 28 28 27 25 23 22 21 19 18 19 20 20 20 19
18 32 41 41 39 42 43 40 39 36 32 37 39 37 36 34 29 27 26 27 25 23 21 20 18 19 18 18 18 18 18 18
31 26 47 42 46 48 43 37 40 37 37 35 34 36 37 34 30 27 27 26 27 25 21 18 16 16 16 16 17 15 16 16
23 28 20 30 30 27 30 38 41 38 35 35 38 38 39 35 32 29 28 27 25 23 21 18 16 15 14 14 14 13 12 13
11 21 27 24 21 28 38 45 42 39 37 39 39 38 37 35 31 29 27 26 22 20 20 18 16 14 13 12 12 10 9 9
21 20 23 23 23 31 41 42 43 43 36 36 37 36 37 35 32 29 27 23 21 20 18 15 13 11 11 10 10 9 7 6
26 23 22 23 34 37 44 41 39 43 37 37 38 35 35 34 32 29 26 21 17 17 18 15 12 11 10 8 8 7 6 5
31 21 27 28 36 37 41 39 39 44 38 37 37 33 34 35 33 31 27 24 20 18 16 13 10 9 8 8 7 7 7 6
24 22 29 36 38 40 40 38 38 40 44 37 38 37 36 33 31 30 27 24 19 16 15 12 11 10 8 7 6 7 8 9
18 19 29 32 37 31 41 39 38 37 41 46 36 38 34 32 29 26 26 21 20 19 15 13 11 9 8 8 8 9 13 13
21 26 29 28 39 34 41 44 42 37 40 38 36 38 34 29 28 26 23 20 17 18 14 13 12 12 12 12 13 15 16 16
24 26 23 28 37 33 39 43 42 36 39 40 38 37 34 31 29 25 24 18 19 16 17 14 15 14 15 15 13 17 20 20
24 24 26 29 31 39 40 34 32 37 39 37 45 41 38 35 29 26 23 19 18 18 17 15 16 15 18 17 8 10 12 15
20 22 25 30 34 35 43 41 43 41 41 44 44 40 37 34 28 26 21 22 20 18 21 20 20 20 20 23 25 25 17 12
23 22 24 31 36 38 42 46 42 42 40 38 39 38 36 37 35 31 26 31 23 21 20 21 21 23 23 25 26 29 31 31
24 26 27 30 38 41 43 47 44 43 42 45 41 40 42 38 35 34 27 28 26 24 23 23 24 26 28 29 30 29 29 30
28 28 31 32 36 40 44 45 45 43 44 48 45 43 41 44 37 40 34 32 32 30 30 30 30 29 30 33 34 33 33 27
25 26 31 34 38 41 44 45 48 47 47 53 48 47 48 47 44 45 42 39 38 36 34 35 35 32 38 38 32 32 35 29

GFSFLT2_850_spd_066.txt.gz
Wind_Speed
23 34 31 30 31 31 32 34 37 36 35 33 30 28 29 29 28 27 26 28 28 28 28 27 26 24 23 21 23 24 19 18
24 31 32 33 31 27 28 30 37 37 36 35 33 30 30 29 27 28 30 29 28 27 27 25 24 22 22 22 22 25 18 17
27 30 36 32 29 30 29 29 31 36 36 34 35 33 30 27 30 31 31 29 28 26 25 24 23 22 23 23 20 16 16 15
23 35 38 41 35 34 31 32 36 37 36 34 31 32 31 29 33 31 30 29 26 23 23 23 22 22 23 20 15 15 16 14
15 25 36 49 44 42 35 35 37 38 36 37 35 31 31 33 33 31 31 28 25 24 22 17 16 16 18 15 17 15 14 14
15 24 29 28 42 40 43 43 40 38 35 36 36 35 36 34 29 28 28 25 24 22 18 16 16 15 15 19 15 14 13 12
6 15 34 40 37 46 47 37 42 45 43 36 35 37 37 36 28 28 26 23 23 20 17 17 16 15 16 16 13 13 13 11
6 16 22 20 37 36 35 43 45 41 41 37 40 37 36 36 32 26 25 24 21 18 18 16 14 14 14 13 13 12 11 11
13 15 17 21 25 23 37 44 42 39 38 44 41 38 36 35 32 29 23 21 21 19 19 15 14 14 13 13 12 11 10 9
21 19 15 15 21 26 35 42 45 41 37 38 39 38 38 37 34 25 22 25 22 22 20 16 14 13 14 14 12 11 10 8
27 19 17 18 19 30 34 38 43 44 40 34 38 33 31 31 30 30 28 28 26 24 20 17 16 14 12 12 11 10 10 10
30 26 18 23 25 30 31 34 40 42 38 30 40 38 37 37 34 32 30 28 21 22 21 18 14 13 12 11 11 11 12 13
20 20 22 28 32 33 35 36 35 47 39 38 40 41 41 38 34 31 31 25 22 23 21 19 18 16 12 12 13 13 14 15
22 21 19 30 31 34 32 40 35 41 40 37 38 38 35 36 35 32 31 28 26 22 21 20 17 18 11 10 9 10 18 20
25 22 23 29 28 33 33 38 36 36 43 41 42 36 36 36 34 33 31 29 27 23 23 19 17 17 19 11 7 10 7 11
25 28 27 26 28 37 35 46 49 34 40 45 51 39 34 39 35 34 32 29 25 22 21 19 17 14 15 21 19 13 12 14
25 28 30 29 28 38 39 44 47 31 34 42 46 41 35 41 37 34 32 27 26 22 20 19 20 19 19 15 19 20 19 20
24 24 27 32 31 35 38 36 41 33 37 40 42 45 41 41 36 37 32 30 27 27 26 26 24 23 20 19 19 17 19 17
24 26 26 30 33 38 40 41 45 43 44 45 43 46 43 51 43 42 39 35 37 34 32 30 28 27 29 26 27 30 27 28
26 26 27 29 35 38 37 41 45 43 45 41 42 46 49 47 46 42 44 40 38 42 36 30 33 30 29 31 35 33 39 37

GFSFLT2_850_spd_069.txt.gz
Wind_Speed
22 20 33 32 32 27 17 33 36 37 35 33 30 29 26 24 23 22 23 24 25 25 24 24 24 25 26 28 27 21 17 17
23 24 23 29 27 20 19 21 35 35 35 34 32 29 28 27 25 23 25 26 26 26 25 25 24 24 23 27 29 22 17 16
25 24 21 23 22 23 24 23 29 35 36 33 28 28 29 28 25 25 27 27 27 27 25 24 23 23 25 25 20 15 15 14
19 25 23 22 25 21 23 27 33 33 34 32 29 29 30 29 25 29 29 27 26 25 23 22 22 26 24 20 15 14 13 13
20 21 24 20 26 25 26 25 33 37 36 34 32 31 30 29 32 32 30 27 26 24 23 19 16 17 12 9 15 13 12 12
12 15 21 27 26 33 25 34 33 30 35 30 33 33 28 30 36 34 32 29 27 25 20 15 15 14 12 14 14 12 12 12
12 16 23 27 29 35 39 30 35 41 34 39 40 32 30 34 33 33 31 23 24 21 14 16 15 14 14 13 13 13 12 11
9 11 16 22 26 27 37 33 34 41 45 45 37 34 30 28 31 27 25 22 21 18 16 16 15 14 15 14 13 13 12 11
8 7 7 7 22 36 42 30 46 46 40 42 34 31 34 27 28 29 25 24 21 19 19 16 15 14 13 14 13 13 12 12
10 9 6 13 24 33 34 45 47 43 46 37 35 35 36 34 27 25 28 22 22 20 19 17 15 15 14 13 12 12 12 12
16 14 11 11 16 20 22 25 40 45 39 39 34 38 40 35 27 22 24 23 22 21 19 17 16 15 14 13 12 12 12 11
17 16 10 7 14 21 23 24 32 39 42 40 36 35 37 34 30 29 28 22 22 20 19 17 15 14 14 13 13 13 12 13
18 20 13 13 17 25 27 32 36 37 42 39 38 30 37 35 28 26 25 25 20 21 20 19 16 15 13 12 12 16 15 14
20 21 22 19 21 26 25 31 37 39 42 42 30 28 31 32 30 32 29 29 23 24 22 20 17 21 16 15 12 11 17 19
24 22 19 21 24 25 27 28 35 40 46 40 34 30 33 38 32 40 35 32 25 24 23 21 21 20 20 11 8 10 16 14
24 26 21 24 28 27 31 31 34 44 50 44 35 36 40 41 40 33 32 30 22 23 25 24 21 19 16 20 19 14 11 7
26 28 28 26 28 28 37 35 30 35 48 45 37 36 36 40 41 36 37 31 31 30 28 25 21 19 20 16 13 15 16 16
25 27 30 31 33 28 31 36 32 39 40 41 46 44 42 36 37 37 37 35 32 29 26 23 23 20 21 21 19 16 16 18
24 27 28 35 35 32 30 36 38 46 41 38 45 50 49 45 37 40 41 39 33 31 32 33 28 25 27 27 24 24 24 24
24 25 26 28 36 38 33 35 34 39 41 34 45 56 55 53 42 42 44 41 38 36 35 34 36 36 35 32 30 26 26 29

GFSFLT2_850_spd_072.txt.gz
Wind_Speed
18 20 19 22 29 30 21 18 20 28 34 32 30 27 24 23 23 21 21 20 24 25 26 26 27 32 31 28 22 20 14 13
18 18 18 23 27 28 31 21 20 38 36 33 31 28 25 24 22 21 21 24 25 26 27 27 30 31 31 26 23 15 11 13
15 17 18 17 22 25 23 24 16 16 41 34 33 28 26 25 23 23 25 25 26 26 27 28 29 30 29 26 21 17 16 10
16 19 19 19 18 22 24 23 7 20 37 38 35 32 29 26 24 25 26 26 26 27 27 28 28 32 27 23 21 15 11 10
16 16 18 16 16 18 21 20 20 26 38 38 35 33 32 27 28 28 29 28 28 27 27 28 33 29 22 19 19 12 9 12
11 15 15 19 18 23 22 25 28 31 38 38 36 34 32 30 31 31 31 30 29 27 26 23 30 21 12 19 17 12 9 12
10 10 12 16 20 23 25 25 30 46 44 38 32 34 33 28 33 33 31 30 27 26 23 17 19 16 15 22 13 12 9 13
9 11 15 18 20 23 25 30 29 43 43 38 38 32 33 31 33 34 30 29 30 24 21 19 17 16 17 20 14 12 8 9
12 7 5 9 17 24 27 31 35 40 35 40 33 37 34 32 35 34 27 26 27 22 20 20 18 17 19 18 16 15 10 8
11 3 2 8 12 20 31 44 42 36 38 32 39 32 31 34 35 32 27 24 23 21 21 20 19 17 17 18 17 17 16 11
11 7 7 5 6 21 30 30 30 26 39 35 32 34 32 32 34 32 30 29 27 23 20 20 19 19 17 16 16 18 19 18
12 9 8 9 15 22 27 30 31 30 38 32 38 43 31 35 31 30 32 31 27 21 24 21 20 19 16 18 17 16 15 17
13 17 11 13 15 16 22 21 27 40 37 40 38 36 35 34 36 32 30 26 26 25 24 21 19 20 17 17 16 18 17 17
15 20 14 13 16 20 21 21 30 36 42 36 39 37 39 37 36 34 35 34 31 26 24 24 20 23 22 19 15 18 23 24
21 24 19 14 18 19 22 26 32 42 39 43 41 38 39 41 37 37 33 31 31 29 27 28 29 27 27 16 10 13 14 21
20 21 20 20 22 25 26 30 35 39 48 42 40 40 37 29 34 35 35 34 30 30 29 30 28 25 26 25 17 10 8 4
25 24 23 21 28 24 27 28 31 39 49 46 46 39 39 35 34 37 39 38 34 31 28 30 28 26 22 22 22 23 22 18
27 24 26 23 30 28 28 28 33 40 43 53 45 41 39 40 40 39 40 37 35 34 31 31 25 20 23 24 25 26 22 18
26 28 30 28 29 33 31 34 33 36 43 55 52 44 43 41 43 42 39 36 35 36 33 28 25 25 24 25 27 27 25 23
25 26 28 31 33 33 35 31 36 33 36 46 56 53 48 45 44 42 42 39 38 39 37 31 30 27 31 36 31 31 31 30

GFSFLT2_850_spd_075.txt.gz
Wind_Speed
17 16 18 20 22 27 31 29 28 16 43 29 30 32 30 27 24 22 23 23 30 32 33 35 36 32 27 24 17 13 12 18
16 17 19 21 24 27 28 25 29 38 19 21 29 33 29 25 23 21 21 25 31 31 32 34 35 31 24 21 17 9 8 17
10 22 21 20 21 24 23 19 16 19 16 30 36 34 30 26 23 21 23 28 29 30 31 36 35 29 29 21 14 7 12 16
13 14 21 18 17 16 22 21 17 15 23 32 34 35 31 26 24 23 24 29 29 30 33 37 35 32 27 19 14 10 8 11
13 14 15 21 21 18 21 24 21 15 15 31 43 37 32 29 29 28 30 27 29 31 35 36 34 31 24 21 17 11 6 12
13 12 16 18 19 18 18 22 22 16 17 47 46 39 34 31 31 31 31 32 33 34 35 35 35 28 25 21 16 10 5 15
11 9 12 17 20 19 18 25 25 20 23 41 43 39 37 33 31 31 31 33 34 34 34 39 29 28 28 15 14 10 6 14
9 10 11 14 18 20 21 22 21 26 31 45 42 39 37 32 31 31 33 32 32 32 36 35 24 27 28 16 14 10 7 11
10 12 13 15 16 20 23 26 30 35 38 40 37 36 36 37 34 34 33 32 30 28 29 28 20 21 26 12 15 11 10 10
13 12 11 11 14 21 21 25 30 38 43 45 41 40 37 30 37 36 34 34 30 28 25 23 23 21 31 18 15 14 11 9
11 11 10 11 12 15 21 24 30 43 45 42 41 38 31 32 41 37 34 35 30 27 28 26 24 21 28 23 21 15 15 14
12 11 10 10 13 19 30 28 32 45 45 40 41 35 32 33 43 40 35 33 33 28 28 25 23 22 22 22 20 21 16 18
16 16 14 11 13 18 23 27 42 39 41 43 37 38 35 42 43 42 37 36 34 33 29 28 26 24 22 18 19 19 21 21
19 20 16 17 20 16 24 28 34 35 34 39 39 40 41 43 44 41 39 36 33 34 33 31 27 25 26 24 20 18 21 21
21 26 19 18 18 23 21 21 31 35 36 42 40 43 43 36 41 40 35 35 34 35 34 34 32 31 26 20 13 14 23 26
23 26 23 19 18 21 26 25 28 33 37 38 43 48 42 36 38 35 35 34 37 38 34 34 33 29 32 29 20 9 10 7
26 25 27 21 23 23 25 26 25 30 39 41 47 44 42 40 40 40 38 36 35 36 36 35 35 32 32 30 27 19 14 12
24 27 27 26 27 26 25 25 30 33 44 42 45 40 41 40 40 39 38 36 35 34 35 35 32 28 29 28 30 30 23 18
30 29 27 28 28 29 26 25 27 33 37 44 47 45 39 38 38 37 40 39 39 35 37 33 30 32 28 32 33 30 27 25
29 31 31 33 30 32 28 27 27 31 36 42 49 48 47 43 42 39 38 39 36 39 38 36 36 37 35 33 33 31 27 29

GFSFLT2_850_spd_078.txt.gz
Wind_Speed
13 14 16 17 18 22 31 34 35 32 27 10 5 26 27 29 28 27 26 29 38 39 40 36 31 26 22 21 17 12 11 16
12 16 18 20 21 25 30 34 25 32 35 28 31 27 26 27 28 25 26 34 40 41 39 34 29 26 23 18 14 10 10 17
9 12 16 20 22 25 27 28 30 30 36 27 20 32 33 31 27 27 27 36 41 41 38 33 29 25 22 18 14 9 14 18
12 14 19 22 20 23 25 26 20 27 24 24 23 36 37 32 28 27 30 37 40 42 39 32 27 26 24 19 12 13 15 17
13 13 16 18 22 19 22 20 22 26 30 32 30 33 40 34 31 28 32 38 40 41 40 31 28 28 24 18 14 13 12 16
16 18 19 19 20 20 22 23 25 25 26 32 42 33 41 37 34 32 36 38 39 42 42 36 31 24 20 20 15 10 7 15
17 14 16 19 19 21 22 25 27 23 23 35 47 50 45 41 35 34 36 38 38 44 42 39 33 20 21 19 15 10 7 15
14 11 12 17 20 22 21 22 27 26 17 18 46 52 47 38 36 36 37 37 39 43 43 40 32 24 24 18 14 10 8 14
14 12 13 15 18 21 22 23 30 30 22 31 44 48 42 40 38 38 36 36 38 42 42 37 32 25 22 17 15 12 9 12
15 14 16 16 19 21 23 23 27 31 32 41 45 44 40 38 38 38 37 37 38 41 44 35 36 25 21 18 19 14 11 11
14 16 13 15 18 21 23 28 27 37 40 43 43 41 40 38 39 40 38 38 39 44 40 34 34 27 21 20 19 16 13 14
12 14 13 14 12 17 22 24 31 36 41 49 45 44 42 39 39 40 40 42 40 41 40 32 31 27 23 20 18 17 16 14
11 15 15 14 20 16 22 25 35 47 45 47 46 43 40 36 39 42 43 43 39 37 33 28 29 27 30 20 17 16 16 15
12 17 15 13 17 21 29 33 34 33 42 46 43 45 43 32 41 43 42 44 39 35 35 34 30 28 32 28 22 17 18 19
13 19 17 15 17 23 22 22 35 44 50 49 48 45 39 36 43 46 42 43 40 33 37 35 33 31 29 29 17 12 21 24
17 23 21 19 19 18 20 27 33 37 43 43 44 41 39 38 43 46 41 38 36 34 37 35 33 35 37 31 24 13 15 14
22 26 24 21 19 21 22 23 26 27 31 39 40 39 36 36 43 43 42 37 38 38 39 35 36 36 36 40 28 19 13 13
25 30 29 24 22 19 23 22 24 29 32 34 38 41 38 39 38 38 41 41 33 36 31 36 38 35 37 39 36 31 24 18
27 31 34 30 25 23 22 23 23 23 30 33 35 39 45 43 39 35 38 35 40 38 37 42 42 39 40 37 35 32 28 27
27 30 33 35 30 28 26 23 23 24 25 31 34 39 46 45 44 39 37 35 32 34 38 40 40 41 41 36 36 33 29 32

GFSFLT2_850_spd_084.txt.gz
Wind_Speed
12 11 11 12 16 22 26 27 30 31 31 32 32 27 27 25 22 17 20 21 24 26 27 27 27 26 24 23 23 22 21 22
13 14 13 15 16 20 26 27 30 31 32 33 32 29 27 26 24 22 22 25 27 30 27 28 27 26 24 22 21 20 18 19
16 15 16 16 18 22 24 27 29 30 32 31 34 21 24 28 28 26 24 25 29 31 29 29 28 25 22 21 19 17 17 18
17 16 18 18 21 21 23 26 31 33 36 38 33 20 28 23 24 27 28 28 33 32 31 29 26 24 21 20 16 16 16 17
18 17 18 18 19 24 27 29 30 35 39 40 37 28 31 25 33 33 28 29 34 34 32 30 26 23 22 18 15 14 17 18
18 19 20 19 19 22 24 28 31 31 42 31 34 30 34 33 29 33 30 34 36 37 34 30 26 23 20 17 13 15 18 18
22 21 22 20 20 22 25 28 30 29 35 32 34 35 38 37 36 37 36 37 41 39 34 29 26 24 19 15 14 15 17 17
24 23 23 21 21 20 24 26 27 29 32 34 31 36 33 34 41 43 40 38 41 40 36 31 25 25 21 16 14 12 15 16
27 24 23 21 20 19 22 24 27 29 29 31 31 32 33 35 44 41 39 38 43 42 35 30 27 28 21 18 14 12 15 17
27 26 24 21 19 19 21 25 26 26 27 31 33 32 33 37 40 37 37 40 45 42 36 32 31 28 24 21 16 12 14 17
27 27 24 20 19 18 17 20 25 28 28 30 34 36 39 39 38 38 38 41 47 44 38 35 32 28 25 22 17 13 12 15
28 27 23 19 19 20 20 21 23 30 30 32 36 41 39 46 43 45 42 43 48 44 39 36 32 28 27 23 19 15 13 12
31 28 23 20 22 23 22 23 24 26 32 31 35 44 44 46 46 43 42 45 52 48 43 38 32 31 30 24 20 17 14 14
32 27 21 19 21 21 24 25 25 25 29 35 36 34 42 46 45 44 42 46 51 49 48 42 34 34 33 27 21 19 19 18
32 25 19 16 18 19 17 19 20 25 27 38 27 34 43 43 42 42 42 45 50 50 52 46 40 37 33 23 16 10 23 22
29 23 17 16 18 17 16 17 23 20 26 41 33 31 35 37 38 38 41 43 46 50 51 47 44 40 34 32 24 15 15 14
29 22 17 18 20 16 14 15 19 18 26 35 36 35 38 35 33 33 35 39 44 48 50 47 42 41 37 34 27 22 15 17
29 23 18 19 19 16 18 16 16 19 26 31 33 39 38 36 35 36 37 38 42 42 45 49 42 38 36 35 34 30 24 19
30 25 21 21 20 17 18 17 17 17 22 34 35 40 42 41 37 37 33 38 34 35 38 47 44 39 35 34 34 33 32 26
31 26 22 22 22 18 18 17 18 17 16 22 33 38 38 40 36 34 32 38 41 37 39 40 38 37 38 36 35 34 33 35